Overview Statistics Trail Chart Weather Telemetry Raw packets
 

This is the latest recevied weather packets stored in our database for station/object R1ZCU-14. If no packets are shown the sender has not sent any weather packets the latest 10 day(s).

<< 21 22 23 24 25 26 27 >>
Time Temp. Humidity Pressure Rain* Wind** Luminosity Snow
1788025021 15.56° C 79% 1012.1 hPa - - - -
1788024932 15.56° C 78% 1012.2 hPa - - - -
1788024331 16.11° C 77% 1012 hPa - - - -
1788023731 16.11° C 76% 1011.9 hPa - - - -
1788023130 16.67° C 76% 1012.1 hPa - - - -
1788022530 16.67° C 74% 1012.1 hPa - - - -
1788021929 16.67° C 72% 1012 hPa - - - -
1788021329 17.22° C 69% 1012.1 hPa - - - -
1788020728 17.78° C 67% 1012.1 hPa - - - -
1788020128 17.78° C 65% 1012.1 hPa - - - -
1788019527 17.78° C 62% 1012.1 hPa - - - -
1788018927 18.33° C 60% 1012 hPa - - - -
1788018326 18.33° C 59% 1012.1 hPa - - - -
1788017726 18.33° C 58% 1012.1 hPa - - - -
1788017125 18.89° C 60% 1012.1 hPa - - - -
1788016525 18.89° C 61% 1012.3 hPa - - - -
1788015924 18.89° C 61% 1012.5 hPa - - - -
1788015324 18.89° C 59% 1012.4 hPa - - - -
1788014723 19.44° C 56% 1012.4 hPa - - - -
1788014123 20° C 55% 1012.4 hPa - - - -
1788013522 20° C 56% 1012.5 hPa - - - -
1788012922 20° C 57% 1012.6 hPa - - - -
1788012321 20° C 56% 1012.5 hPa - - - -
1788011721 20° C 57% 1012.5 hPa - - - -
1788011120 20° C 56% 1012.4 hPa - - - -

* Rain since midnight (hover to see other rain measurements)
** Current wind speed in m/s (hover to see current wind gust speed)